Tracking 20712 objects as of 30-May-2020
HD Live streaming from Space Station
objects crossing your sky now

WESTFORD NEEDLES

Track WESTFORD NEEDLES now!
10-day predictions
WESTFORD NEEDLES is classified as:


NORAD ID: 2377
Int'l Code: 1963-014X
Perigee: 2,737.4 km
Apogee: 4,502.7 km
Inclination: 87.3 °
Period: 165.6 minutes
Semi major axis: 9991 km
RCS: 0.1884 m2 (medium)
Launch date: May 9, 1963
Source: United States (US)
Launch site: AIR FORCE WESTERN TEST RANGE (AFWTR)
aabbcc
Your satellite tracking list
Your tracking list is empty




NASA's NSSDC Master Catalog

Two Line Element Set (TLE):
1  2377U 63014X   20150.56722327 +.00000316 +00000-0 +94297-1 0  9997
2  2377 087.3034 022.1736 0883445 113.2642 256.3655 08.69334198734016
Source of the keplerian elements: AFSPC